Location: *
(32.8667°N, 13.1833°E)
Time: 16:49:27
(UTC+00:00)

Cosmos 2237 Rocket - Pass Details

Date: 18 July 2019
Orbit: 835 x 850 km, 71.0° (Epoch: 20 August)

Event Time Altitude Azimuth Distance (km) Brightness Sun altitude
Exits shadow 21:07:45 15° 58° (ENE) 2,114 4.2 -28.4°
Drops below altitude 10° 21:08:57 10° 49° (NE) 2,447 4.7 -28.5°
Sets 21:11:48 0° 36° (NE) 3,385 5.6 -28.8°
